Weather reports worldwide

Advertisment
Pershore, United Kingdom (3529): temperature & dewpoint: 11.08.2018 00:00:00 - 17.08.2018 00:00:00 (BST)Pershore, United Kingdom (3529): temperature -20cm & temperature -100cm: 11.08.2018 00:00:00 - 17.08.2018 00:00:00 (BST)Pershore, United Kingdom (3529): wind speed & gusts: 11.08.2018 00:00:00 - 17.08.2018 00:00:00 (BST)Pershore, United Kingdom (3529): wind direction: 11.08.2018 00:00:00 - 17.08.2018 00:00:00 (BST)Pershore, United Kingdom (3529): reduced air pressure: 11.08.2018 00:00:00 - 17.08.2018 00:00:00 (BST)Pershore, United Kingdom (3529): visibility: 11.08.2018 00:00:00 - 17.08.2018 00:00:00 (BST)Pershore, United Kingdom (3529): precipitation: 11.08.2018 00:00:00 - 17.08.2018 00:00:00 (BST)
Date & Time tt [°C] td [°C] tt -20cm [°C] tt -100cm [°C] ff [km/h] ff [kn] fx [km/h] fx [kn] dd ppp [hPa] vv [km] rr [mm]
17.08.2018 00:00:00 13,0 10,3 - - 5 3 - - S 1017,1 35 0,0
16.08.2018 23:00:00 12,5 9,1 - - 8 4 - - SSE 1016,8 40 0,0
16.08.2018 22:00:00 14,6 9,0 - - 8 4 - - SSW 1016,2 40 0,0
16.08.2018 21:00:00 15,5 8,2 - - 5 3 - - WSW 1015,6 50 0,0
16.08.2018 20:00:00 18,0 8,3 - - 9 5 - - W 1014,7 45 0,0
16.08.2018 19:00:00 18,8 9,1 - - 15 8 - - W 1014,1 50 0,0
16.08.2018 18:00:00 19,5 8,7 - - 15 8 - - W 1013,8 45 0,0
16.08.2018 17:00:00 19,2 10,0 - - 15 8 - - W 1013,3 35 0,0
16.08.2018 16:00:00 20,1 9,3 - - 15 8 - - W 1013,0 40 0,0
16.08.2018 15:00:00 19,7 8,9 - - 16 9 - - W 1012,8 30 0,0
16.08.2018 14:00:00 19,9 10,2 - - 15 8 - - W 1012,7 30 0,0
16.08.2018 13:00:00 18,7 9,6 - - 21 11 - - W 1012,7 29 0,0
16.08.2018 12:00:00 16,9 10,9 - - 15 8 - - W 1012,8 25 0,0
16.08.2018 11:00:00 15,8 12,2 - - 11 6 - - W 1012,8 23 0,0
16.08.2018 10:00:00 15,7 14,1 18,9 18,0 13 7 - - WSW 1012,3 25 0,0
16.08.2018 09:00:00 16,2 15,6 - - 13 7 - - SSW 1011,6 35 1,0
16.08.2018 08:00:00 15,9 15,2 - - 11 6 - - SW 1011,6 14 1,0
16.08.2018 07:00:00 16,3 15,7 - - 8 4 - - SW 1011,1 28 1,8
16.08.2018 06:00:00 16,7 16,2 - - 13 7 - - SW 1011,1 13 1,6
16.08.2018 05:00:00 17,2 16,0 - - 18 10 - - SW 1010,9 6 0,0
16.08.2018 04:00:00 17,4 16,0 - - 22 12 - - SSW 1010,8 35 0,2
16.08.2018 03:00:00 18,3 15,3 - - 22 12 - - SSW 1011,7 40 0,0
16.08.2018 02:00:00 18,4 15,4 - - 18 10 - - SSW 1012,2 40 0,0
16.08.2018 01:00:00 18,6 15,6 - - 21 11 - - S 1012,8 35 0,0
16.08.2018 00:00:00 18,4 15,5 - - 16 9 - - SSW 1013,4 45 0,0
15.08.2018 23:00:00 18,1 15,7 - - 18 10 - - S 1013,8 30 0,0
15.08.2018 22:00:00 19,3 15,0 - - 21 11 - - SSW 1014,3 50 0,0
15.08.2018 21:00:00 20,0 15,0 - - 21 11 - - SW 1014,4 50 0,0
15.08.2018 20:00:00 20,6 14,1 - - 18 10 - - SW 1014,3 40 0,0
15.08.2018 19:00:00 21,1 14,0 - - 22 12 - - WSW 1014,5 50 0,0
15.08.2018 18:00:00 22,5 13,5 - - 28 15 - - SW 1014,7 35 0,0
15.08.2018 17:00:00 22,4 13,4 - - 28 15 46 25 SW 1015,4 50 0,0
15.08.2018 16:00:00 21,9 14,6 - - 21 11 - - SW 1015,8 35 0,0
15.08.2018 15:00:00 21,5 14,4 - - 29 16 48 26 SW 1016,5 50 0,0
15.08.2018 14:00:00 21,5 15,1 - - 24 13 - - SW 1016,7 35 0,0
15.08.2018 13:00:00 21,8 15,6 - - 21 11 - - SW 1016,6 35 0,0
15.08.2018 12:00:00 21,7 16,2 - - 21 11 - - SW 1016,8 35 0,0
15.08.2018 11:00:00 20,9 15,8 - - 15 8 - - SW 1017,0 45 0,0
15.08.2018 10:00:00 20,0 16,3 18,9 18,0 16 9 - - SSW 1017,0 40 0,0
15.08.2018 09:00:00 19,2 15,9 - - 18 10 - - SW 1016,9 40 0,0
15.08.2018 08:00:00 17,7 15,1 - - 16 9 - - SW 1016,6 40 0,0
15.08.2018 07:00:00 16,3 14,2 - - 13 7 - - SW 1016,9 23 0,0
15.08.2018 06:00:00 16,4 13,9 - - 9 5 - - SSW 1017,0 27 0,0
15.08.2018 05:00:00 16,7 14,0 - - 9 5 - - S 1017,3 26 0,0
15.08.2018 04:00:00 16,5 13,7 - - 8 4 - - SSW 1017,6 19 0,0
15.08.2018 03:00:00 16,4 13,5 - - 8 4 - - S 1017,6 23 0,0
15.08.2018 02:00:00 16,6 13,6 - - 8 4 - - SW 1017,9 23 0,0
15.08.2018 01:00:00 16,8 13,4 - - 9 5 - - SW 1018,1 23 0,0
15.08.2018 00:00:00 17,3 13,5 - - 11 6 - - SSW 1018,1 26 0,0
14.08.2018 23:00:00 17,5 13,8 - - 11 6 - - SW 1017,9 30 0,0
14.08.2018 22:00:00 18,3 13,7 - - 8 4 - - WSW 1017,6 35 0,0
14.08.2018 21:00:00 19,6 14,3 - - 9 5 - - W 1017,7 30 0,0
14.08.2018 20:00:00 20,0 14,7 - - 11 6 - - WSW 1017,2 35 0,0
14.08.2018 19:00:00 21,1 15,3 - - 18 10 - - SW 1016,7 30 0,0
14.08.2018 18:00:00 21,5 16,4 - - 15 8 - - SSW 1016,4 30 0,0
14.08.2018 17:00:00 22,0 15,7 - - 11 6 - - WSW 1016,5 50 0,0
14.08.2018 16:00:00 22,0 14,8 - - 13 7 - - WSW 1016,6 40 0,0
14.08.2018 15:00:00 21,7 14,8 - - 15 8 - - W 1016,8 40 0,0
14.08.2018 14:00:00 21,9 15,0 - - 15 8 - - WSW 1016,5 40 0,0
14.08.2018 13:00:00 20,9 14,2 - - 11 6 - - SW 1016,7 50 0,0
14.08.2018 12:00:00 20,4 13,9 - - 16 9 - - WSW 1016,7 45 0,0
14.08.2018 11:00:00 20,3 13,9 - - 13 7 - - WSW 1016,4 29 0,0
14.08.2018 10:00:00 18,5 14,4 18,7 18,2 13 7 - - SW 1016,3 35 0,0
14.08.2018 09:00:00 17,3 13,8 - - 9 5 - - SW 1016,1 30 0,0
14.08.2018 08:00:00 16,0 13,9 - - 4 2 - - SSW 1015,8 30 0,0
14.08.2018 07:00:00 15,0 13,4 - - 8 4 - - SW 1015,4 23 0,0
14.08.2018 06:00:00 14,7 13,1 - - 5 3 - - SW 1015,0 22 0,0
14.08.2018 05:00:00 14,4 12,8 - - 5 3 - - SW 1014,7 29 0,0
14.08.2018 04:00:00 13,7 12,6 - - 2 1 - - SSW 1014,6 30 0,0
14.08.2018 03:00:00 11,9 10,5 - - 4 2 - - S 1014,3 35 0,0
14.08.2018 02:00:00 13,4 11,3 - - 2 1 - - W 1014,2 35 0,0
14.08.2018 01:00:00 14,5 11,9 - - 8 4 - - W 1014,0 45 0,0
14.08.2018 00:00:00 15,8 13,1 - - 8 4 - - WNW 1013,4 50 0,0
13.08.2018 23:00:00 16,4 13,8 - - 4 2 - - NNW 1012,8 45 0,0
13.08.2018 22:00:00 16,5 14,0 - - 5 3 - - W 1012,1 40 0,0
13.08.2018 21:00:00 17,4 13,7 - - 5 3 - - WSW 1011,6 40 0,0
13.08.2018 20:00:00 19,8 14,7 - - 9 5 - - NW 1010,7 50 0,0
13.08.2018 19:00:00 21,8 15,7 - - 11 6 - - NW 1009,9 40 0,0
13.08.2018 18:00:00 20,6 16,1 - - 9 5 - - NW 1009,5 50 0,0
13.08.2018 17:00:00 20,1 16,1 - - 11 6 - - NW 1009,2 40 0,0
13.08.2018 16:00:00 23,9 15,4 - - 13 7 - - NW 1008,2 28 0,0
13.08.2018 15:00:00 24,0 15,4 - - 9 5 - - W 1008,0 30 0,0
13.08.2018 14:00:00 23,3 14,9 - - 9 5 - - WNW 1008,0 35 0,0
13.08.2018 13:00:00 22,3 15,8 - - 8 4 - - WNW 1007,9 30 0,0
13.08.2018 12:00:00 20,3 14,4 - - 9 5 - - W 1007,8 35 0,0
13.08.2018 11:00:00 19,7 14,8 - - 5 3 - - WNW 1007,6 40 0,0
13.08.2018 10:00:00 18,0 15,4 18,2 18,2 9 5 - - WNW 1007,3 30 0,2
13.08.2018 09:00:00 16,7 15,1 - - 5 3 - - WNW 1007,0 35 0,0
13.08.2018 08:00:00 16,1 15,1 - - 5 3 - - W 1007,0 17 0,0
13.08.2018 07:00:00 15,8 15,3 - - 4 2 - - NW 1006,2 25 0,0
13.08.2018 06:00:00 15,6 15,2 - - 5 3 - - WNW 1005,7 18 0,0
13.08.2018 05:00:00 15,6 15,2 - - 5 3 - - WNW 1005,5 9 0,0
13.08.2018 04:00:00 16,0 15,6 - - 5 3 - - WSW 1005,6 9 0,0
13.08.2018 03:00:00 16,1 15,5 - - 4 2 - - WSW 1005,6 10 0,0
13.08.2018 02:00:00 16,2 15,5 - - 2 1 - - W 1005,7 11 0,0
13.08.2018 01:00:00 15,9 14,9 - - 5 3 - - S 1005,9 24 0,0
13.08.2018 00:00:00 15,6 14,6 - - 9 5 - - SSE 1006,0 26 0,0
12.08.2018 23:00:00 16,6 15,1 - - 13 7 - - SSE 1006,1 45 0,0
12.08.2018 22:00:00 17,3 15,5 - - 8 4 - - SSE 1006,4 35 0,0
12.08.2018 21:00:00 17,6 15,5 - - 8 4 - - SE 1006,6 40 0,0
12.08.2018 20:00:00 18,6 15,5 - - 15 8 - - SE 1006,4 40 0,0
12.08.2018 19:00:00 18,3 15,7 - - 13 7 - - SE 1006,7 45 0,0
12.08.2018 18:00:00 18,6 15,9 - - 15 8 - - SSE 1007,2 45 0,0
12.08.2018 17:00:00 18,3 16,1 - - 13 7 - - S 1007,3 30 0,0
12.08.2018 16:00:00 18,2 16,5 - - 15 8 - - S 1007,6 50 0,0
12.08.2018 15:00:00 18,0 16,6 - - 15 8 - - S 1008,3 5 0,2
12.08.2018 14:00:00 18,8 15,8 - - 18 10 - - SSE 1008,4 45 0,0
12.08.2018 13:00:00 19,1 16,4 - - 16 9 - - S 1008,9 40 0,0
12.08.2018 12:00:00 17,4 16,1 - - 16 9 - - S 1009,4 11 0,0
12.08.2018 11:00:00 17,7 16,1 - - 13 7 - - S 1009,4 45 0,0
12.08.2018 10:00:00 17,0 15,8 18,0 18,4 9 5 - - SSE 1009,4 25 0,4
12.08.2018 09:00:00 16,8 15,5 - - 16 9 - - S 1009,8 24 0,4
12.08.2018 08:00:00 16,5 15,4 - - 16 9 - - S 1010,2 22 0,0
12.08.2018 07:00:00 16,2 15,2 - - 18 10 - - S 1010,5 9 0,0
12.08.2018 06:00:00 16,5 15,1 - - 13 7 - - S 1010,9 30 0,0
12.08.2018 05:00:00 16,3 15,0 - - 16 9 - - S 1011,1 23 0,6
12.08.2018 04:00:00 16,3 14,9 - - 18 10 - - S 1011,9 14 0,6
12.08.2018 03:00:00 16,2 14,8 - - 16 9 - - S 1012,7 14 1,8
12.08.2018 02:00:00 15,8 14,3 - - 18 10 - - S 1013,6 10 1,6
12.08.2018 01:00:00 16,3 14,9 - - 18 10 - - S 1014,3 16 1,2
12.08.2018 00:00:00 16,0 14,5 - - 18 10 - - S 1015,0 13 1,0
11.08.2018 23:00:00 16,6 14,7 - - 21 11 - - S 1015,8 15 0,0
11.08.2018 22:00:00 16,8 14,6 - - 16 9 - - S 1016,4 12 0,0
11.08.2018 21:00:00 16,6 14,9 - - 15 8 - - S 1016,7 22 0,0
11.08.2018 20:00:00 16,6 15,1 - - 21 11 - - S 1017,1 30 1,4
11.08.2018 19:00:00 16,6 16,0 - - 13 7 - - S 1017,8 6 3,4
11.08.2018 18:00:00 16,8 15,6 - - 16 9 - - SSE 1018,5 7 0,4
11.08.2018 17:00:00 18,6 13,8 - - 16 9 - - S 1019,0 30 0,0
11.08.2018 16:00:00 19,0 11,6 - - 18 10 - - S 1019,7 50 0,0
11.08.2018 15:00:00 19,2 11,4 - - 18 10 - - S 1020,6 40 0,0
11.08.2018 14:00:00 20,3 9,3 - - 16 9 - - S 1020,8 45 0,0
11.08.2018 13:00:00 19,1 7,5 - - 18 10 - - S 1021,5 35 0,0
11.08.2018 12:00:00 19,7 6,6 - - 15 8 - - S 1021,8 35 0,0
11.08.2018 11:00:00 18,9 8,2 - - 15 8 - - SSW 1022,3 40 0,0
11.08.2018 10:00:00 17,3 10,6 17,7 18,5 8 4 - - S 1022,6 45 0,0
11.08.2018 09:00:00 14,7 9,6 - - 9 5 - - S 1023,0 23 0,0
11.08.2018 08:00:00 10,9 9,6 - - 2 1 - - W 1023,3 35 0,0
11.08.2018 07:00:00 7,8 7,6 - - 2 1 - - E 1023,2 27 0,0
11.08.2018 06:00:00 5,6 5,2 - - 2 1 - - ENE 1023,0 22 0,0
11.08.2018 05:00:00 6,1 5,7 - - 0 0 - - N 1022,8 17 0,0
11.08.2018 04:00:00 6,5 5,6 - - 4 2 - - WSW 1022,7 30 0,0
11.08.2018 03:00:00 7,2 6,4 - - 4 2 - - WSW 1022,7 45 0,0
11.08.2018 02:00:00 7,6 5,5 - - 2 1 - - SSW 1022,7 30 0,0
11.08.2018 01:00:00 9,9 7,1 - - 8 4 - - SW 1022,3 50 0,0
11.08.2018 00:00:00 10,2 7,0 - - 8 4 - - WSW 1022,0 50 0,0

tt = temperature
td = dewpoint
tt -20cm = temperature -20cm
tt -100cm = temperature -100cm
ff = wind speed
fx = gusts
dd = wind direction
ppp = reduced air pressure
vv = visibility
rr = precipitation

Next stations